Tracking 34094 objects as of 10-May-2026
HD Live streaming from Space Station
objects crossing your sky now

DELTA 1 R/B

Track DELTA 1 R/B now!
10-day predictions


NORAD ID: 575
Int'l Code: 1963-013B
Perigee: 975.5 km
Apogee: 10,783.6 km
Inclination: 42.8 °
Period: 224.9 minutes
Semi major axis: 12250 km
RCS: 0.4447 m2 (medium)
Launch date: May 7, 1963
Source: United States (US)
Launch site: AIR FORCE EASTERN TEST RANGE (AFETR)

Note: This is a ROCKET BODY
Your satellite tracking list
Your tracking list is empty




NASA's NSSDC Master Catalog

Two Line Element Set (TLE):
1 00575U 63013B   26129.26807028  .00000080  00000-0  15110-2 0  9991
2 00575  42.7727 326.6878 4003130 167.8635   0.8666  6.40277260473492
Source of the keplerian elements: AFSPC